Погода в Лиде

Погода в Лиде : погода сейчас, прогноз погоды и архив. Всё, что Вы хотите узнать о погоде в Лиде!

Хотите узнать прогноз погоды в Лиде? Тогда Вам сюда: Погода в Лиде

Поиск расширенной информации на нашем сайте:

Другие новости

Новости СМИ2

Главная страница сайта

Новости сайта

03.07.2017

Напоминаем, что на нашем специализированном сайте Метеоцентр.Азия вы можете получить высокодетализированные автоматические прогнозы погоды по пунктам России, СНГ и мира в авиационном формате (включающие направление и скорость ветра, видимость, явления погоды, количество и форму облачности, нижнюю и верхнюю границу облачности).


Погода в Лиде - сегодня

Время (UTC), дата Ветер
(°,м/с) 
Видим.   Явления Облачность Т
(°С)
Тd
(°С)
f(%) Тe
(°С)
Pmin
(гПа)
dP
(гПа)
Po
(мм)
O2
(г/м3)
Тmin Tmax R s Состояние
почвы
12 13.10.18 220 (ЮЗ) 11000 м    ясно 
+18.5 +10.7 60 +22  1032.2  0.1  760  285           
15 13.10.18 тихо ()   10 км    ясно 
+15.4 +12.1 81 +19  1031  -1.4  759  287           
18 13.10.18 тихо ()   3300 м  дымка  ясно 
+9.6 +9.2 97 +10  1031.2  -0.2  759  294    +19.5       
21 13.10.18 060 (СВ) 3500 м  дымка  ясно 
+7.2 +6.8 97 +8  1031.9  0.5  759  297           
00 14.10.18 тихо ()   2300 м  дымка  ясно 
+5.2 +5 99 +5  1031.9  -0.1  759  299           
03 14.10.18 тихо ()   1500 м  в посл. час туман  ясно 
+3.8 +3.3 97 +4  1031.6  -0.5  759  301           
06 14.10.18 тихо ()   0200 м  туман  ?/?  
+3.6 +3.6 100 +4  1031.8  0.2  759  301  +2.7         
09 14.10.18 160 (Ю) 10 км  {туман}  ясно 
+12.7 +9.2 79 +14  1031.1  759  291           
15 14.10.18 тихо ()   12000 м    1/0 верхняя 
[Ci fib]
+16.8 +7.7 55 +17  1027.8  -1.5  757  286           
18 14.10.18 140 (ЮВ) 11000 м    ясно 
+12.5 +5.5 62 +13  1028.1  757  291    +19.7       
21 14.10.18 тихо ()   10 км    ясно 
+8.7 +5.3 79 +9  1028.6  0.2  757  295           
00 15.10.18 130 (ЮВ) 9000 м  дымка  ясно 
+5 +3.6 91 +6  1028.5  -0.3  757  299           
03 15.10.18 120 (ЮВ) 10 км    ясно 
+6 +2.1 76 +7  1028.2  -0.3  757  298           
06 15.10.18 130 (ЮВ) 12000 м    ясно 
+5.9 +1.7 74 +6  1028.2  757  298  +3         
09 15.10.18 120 (ЮВ) 13000 м    3/0 верхняя 
[Ci fib]
+13.2 +5.3 59 +14  1027.7  757  290           
12 15.10.18 160 (Ю) 15000 м    3/0 верхняя 
[Ci fib]
+19.6 +3.2 34 +20  1026.1  -1.2  756  284           
15 15.10.18 160 (Ю) 15000 м    8/0 средняя, верхняя 
[Ac trans|Ci fib]
+18.1 +5.1 42 +19  1025.5  -0.6  755  285           
18 15.10.18 140 (ЮВ) 10 км    3/0 верхняя 
[Ci fib]
+13.5 +5.5 58 +14  1026.1  0.2  755  289    +20.1       
21 15.10.18 120 (ЮВ) 10 км    3/0 верхняя 
[Ci fib]
+10.3 +5.9 74 +11  1025.8  -0.4  755  292           
00 16.10.18 140 (ЮВ) 10 км    ясно 
+8.4 +5.8 84 +9  1025.7  -0.3  755  294           
03 16.10.18 140 (ЮВ) 10 км    3/0 верхняя 
[Ci fib]
+8.5 +4.6 76 +9  1025.3  -0.4  755  294           
06 16.10.18 130 (ЮВ) 9000 м  дымка  8/0 верхняя 
[Ci fib]
+6.1 +4.7 91 +7  1025.7  0.3  755  297  +5.2         
09 16.10.18 160 (Ю) 11000 м    8/0 средняя, верхняя 
[Ac trans|Ci fib]
+15.3 +6.2 55 +17  1025  -0.2  755  287           
12 16.10.18 170 (Ю) 15000 м    5/0 верхняя 
[Ci fib]
+19.9 +6.7 42 +21  1023.9  -0.8  754  282           
15 16.10.18 140 (ЮВ) 12000 м    3/0 верхняя 
[Ci fib]
+16 +8.8 62 +17  1023.6  -0.3  754  285           
Время (UTC), дата Ветер
(°,м/с) 
Видим.   Явления Облачность Т
(°С)
Тd
(°С)
f(%) Тe
(°С)
Pmin
(гПа)
dP
(гПа)
Po
(мм)
O2
(г/м3)
Тmin Tmax R s Состояние
почвы

Для получения пояснительной информации подведите курсор к названию столбца.

ПОГОДА в Лиде - архив

Всё, что Вы хотите узнать о погоде в Лиде - удобно и подробно!

Выберите нужную дату (начиная с 1 января 2015* года) и нажмите кнопку "Найти".
Будут отображены архивные сводки погоды по пункту Лида, начиная с указанной даты.


Отображать данные в формате CSV (для использования в таблицах Excel)


Внимание! Наш архив погоды предназначен исключительно для личного некоммерческого использования в познавательных целях. Если Вам необходимы официальные справки о состоянии погоды (для производственных, юридических, коммерческих и т.п. целей), обращайтесь в органы Росгидромета.

*Примечание: данная дата относится к архиву по метеостанциям СССР (Россия, СНГ, Балтия).
Архив по метеостанциям Зарубежной Европы и Азии (кроме Китая) хранится 10 дней, по другим регионам земного шара (Китай, Африка, Америка, Австралия, Океания) - 1 день.

Лида - район местоположения метеостанции


Название, широта, долгота, высота метеостанции:
Лида 53.9°ш. 25.3°д. 157 м над ур. моря [Беларусь]

Дополнительная информация

В oтличие oт бoльшинства пoгoдных сайтoв мы публикуем пoдрoбную метеoинфoрмацию в детальнoм прoфессиoнальнoм фoрмате.

Характеристики температуры и влажнoсти вoздуха измеряются на высoте 2 м в тени вдали oт зданий и деревьев.
Скoрoсть ветра измеряется на высoте 10 м (на урoвне рoста челoвека скoрoсть ветра ниже в 1.5-2 раза). Если метеoстанция нахoдится в гoрoде или в лесу, тo скoрoсть ветра занижена на 2-4 м/с пo сравнению с oткрытым местoм. Скoрoсть ветра над акватoриями крупных рек и oзёр, а также на вершинах хoлмoв на 2-5 м/с выше, чем в oбычных услoвиях.
Атмoсфернoе давление в разных тoчках местнoсти мoжет значительнo oтличаться oт давления на метеoстанции, в зависимoсти oт услoвий рельефа (при пoдъёме на 10 м давление пoнижается примернo на 1 мм рт.ст.).